Flag for France Weather past 2 weeks in Orléans, France

Now
46 °F

Passing clouds.


Feels Like: 40 °F
Forecast: 43 / 58 °F
Wind: 14 mph from West

Location: Orleans Airport

Current Time: Oct 22, 2014 at 3:51:14 AM

Latest Report: Oct 22, 2014 at 3:00 AM


Visibility: N/A

Pressure: 30.27 "Hg

Humidity: 82%

Dew point: 41 °F

Location of OrléansLocation

Historic Weather in Orléans — Graph

°F

Orléans temperature yesterday

Maximum temperature yesterday: 63 °F (at 1:00 PM)
Minimum temperature yesterday: 48 °F (at 10:00 PM)
Average temperature yesterday: 56 °F

Past Weeks' High & Low Weather Summary

 TemperatureHumidityPressure
High77 °F (Oct 18, 4:30 PM)100% (Oct 8, 2:00 AM)30.27 "Hg (Oct 8, 2:00 AM)
Low45 °F (Oct 14, 7:30 AM)49% (Oct 14, 4:30 PM)29.56 "Hg (Oct 8, 5:30 PM)
Average59 °F85%29.86 "Hg
* Reported Oct 7 2:00 AM — Oct 22 2:30 AM, Orléans, Weather by CustomWeather, © 2014

Note: Actual official high and low records may vary slightly from our data, if they occured in-between our weather recording intervals... More about our weather records

Advertising

Orléans weather history for previous 24 hours

 ConditionsComfort  
Time TempWeatherWind HumidityBarometerVisibility
2:30 AM
Oct 22
46 °FPassing clouds.12 mph82%30.27 "HgN/A
2:00 AM48 °FPassing clouds.14 mph76%30.24 "HgN/A
1:30 AM46 °FPassing clouds.14 mph87%30.24 "HgN/A
1:00 AM46 °FClear.13 mph87%30.24 "HgN/A
12:30 AM48 °FClear.13 mph82%30.24 "HgN/A
12:00 AM50 °FClear.15 mph76%30.21 "HgN/A
11:30 PM
Oct 21
48 °FClear.14 mph82%30.21 "HgN/A
11:00 PM48 °FClear.14 mph82%30.18 "HgN/A
10:30 PM48 °FClear.14 mph76%30.18 "HgN/A
10:00 PM48 °FPassing clouds.14 mph82%30.15 "HgN/A
9:30 PM50 °FPassing clouds.15 mph76%30.15 "HgN/A
9:00 PM50 °FClear.15 mph76%30.12 "HgN/A
8:30 PM50 °FClear.13 mph82%30.12 "HgN/A
8:00 PM52 °FPassing clouds.17 mph72%30.09 "HgN/A
7:30 PM52 °FScattered clouds.16 mph72%30.09 "HgN/A
7:00 PM54 °FClear.20 mph67%30.07 "HgN/A
6:30 PM54 °FPassing clouds.20 mph67%30.04 "HgN/A
6:00 PM55 °FClear.22 mph63%30.01 "HgN/A
5:30 PM57 °FClear.24 mph59%30.01 "HgN/A
5:00 PM57 °FBroken clouds.24 mph63%29.98 "HgN/A
4:30 PM61 °FClear.23 mph59%29.98 "HgN/A
4:00 PM59 °FClear.28 mph68%29.95 "HgN/A
3:30 PM59 °FPartly sunny.25 mph72%29.95 "HgN/A
3:00 PM59 °FPartly sunny.24 mph82%29.92 "HgN/A
2:30 PM59 °FRain. Fog.29 mph88%29.92 "Hg1 mi
2:00 PM63 °FPartly sunny.28 mph77%29.92 "HgN/A
1:30 PM61 °FCloudy.26 mph83%29.92 "HgN/A
1:00 PM63 °FPartly sunny.24 mph77%29.92 "HgN/A
12:30 PM59 °FMore clouds than sun.23 mph88%29.92 "HgN/A
12:00 PM59 °FMostly cloudy.22 mph82%29.95 "HgN/A
11:30 AM61 °FBroken clouds.24 mph77%29.95 "HgN/A
11:00 AM61 °FBroken clouds.21 mph83%29.92 "HgN/A
10:30 AM59 °FOvercast.18 mph94%29.95 "HgN/A
10:00 AM59 °FBroken clouds.15 mph94%29.95 "HgN/A
9:30 AM57 °FPartly sunny.14 mph94%29.95 "HgN/A
9:00 AM57 °FPartly cloudy.13 mph94%29.95 "HgN/A
8:30 AM57 °FPartly cloudy.13 mph94%29.98 "HgN/A
8:00 AM57 °FPassing clouds.12 mph94%29.95 "HgN/A
7:30 AM55 °FPassing clouds.14 mph94%29.98 "HgN/A
7:00 AM57 °FPartly cloudy.14 mph88%29.98 "HgN/A
6:30 AM55 °FMostly cloudy.12 mph100%29.98 "HgN/A
6:00 AM55 °FPartly cloudy.12 mph94%30.01 "HgN/A
5:00 AM55 °FMostly cloudy.13 mph94%30.01 "HgN/A
4:30 AM55 °FPassing clouds.9 mph94%30.01 "HgN/A
4:00 AM55 °FPartly cloudy.7 mph94%30.04 "HgN/A
3:30 AM55 °FMostly cloudy.6 mph94%30.04 "Hg5 mi
3:00 AM54 °FFog.7 mph100%30.04 "Hg3 mi
Weather by CustomWeather, © 2014

See weather overviewHow to use our weather pages